Content
SEND FEEDBACK

Daily
Averages
Monthly
Summary
United States of America

BEDFORD PARK, ILLINOIS


Home > North America > United States > Illinois
Elevation: 623 feet     Latitude: 41 46N     Longitude: 087 45W

WEATHER
 
SELECT A DAY
Number of Records: 189,344;   Date Range: 1/1/95 - 7/29/14
 
SHARE

PRINT THIS DATA

[ ← Previous Day ]
WEATHER ALMANAC - APRIL 1, 2013
[ Next Day → ]
[ °C ]   °F
Weather ElementAverageHighLow
Temperature35.3 °F41 °F (3:51 pm)30.9 °F (5:51 am)
Dewpoint13.1 °F18 °F (1:51 am)9 °F (11:51 am)
Humidity41.2 %59 % (5:51 am)28 % (3:51 pm)
Barometer30.11 in30.21 in (10:51 pm)29.93 in (1:51 am)
Wind Speed12.3 mph17.3 mph (1:51 pm)
Wind Gust24.2 mph (1:51 pm)
Weather ElementAverage
Visibility10 mi
Wind DirectionWNW (309.1 °)

Weather ElementTotal
Precipitation---
Heating Degree Days29.1 (Base 65)
Averaged from 23 records on April 1, 2013
WEATHER CONDITIONS BREAKOUT
WIND DIRECTION BREAKOUT
WEATHER BY HOUR - APRIL 1, 2013
[ °C ]   °F
Local TimeTemperatureDewpointHumidityBarometerVisibilityWind DirectionWind SpeedGust SpeedPrecipitationEventsConditions
1:51 AM36.0 °F18.0 °F48 %29.93 in10.0 miNW (320°)12.7 mph21.9 mphClear
2:51 AM34.0 °F18.0 °F52 %29.96 in10.0 miNW (320°)12.7 mphClear
3:51 AM33.1 °F17.1 °F52 %29.98 in10.0 miNW (320°)11.5 mphClear
4:51 AM32.0 °F17.1 °F54 %30.00 in10.0 miNNW (330°)10.4 mphClear
5:51 AM30.9 °F18.0 °F59 %30.03 in10.0 miNW (320°)10.4 mphPartly Cloudy
6:51 AM30.9 °F16.0 °F54 %30.07 in10.0 miNW (320°)10.4 mphPartly Cloudy
7:51 AM33.1 °F17.1 °F52 %30.10 in10.0 miNNW (330°)6.9 mphPartly Cloudy
8:51 AM34.0 °F16.0 °F48 %30.12 in10.0 miNW (310°)13.8 mph20.7 mphScattered Clouds
9:51 AM34.0 °F10.0 °F37 %30.14 in10.0 miNNW (330°)13.8 mphScattered Clouds
10:51 AM36.0 °F10.0 °F34 %30.15 in10.0 miWNW (290°)15.0 mph20.7 mphScattered Clouds
11:51 AM37.9 °F9.0 °F30 %30.15 in10.0 miNW (310°)11.5 mph19.6 mphScattered Clouds
12:51 PM37.9 °F10.0 °F32 %30.15 in10.0 miNW (320°)11.5 mph20.7 mphPartly Cloudy
1:51 PM39.0 °F10.0 °F30 %30.15 in10.0 miNW (310°)17.3 mph24.2 mphScattered Clouds
2:51 PM39.0 °F9.0 °F29 %30.15 in10.0 miNW (310°)12.7 mph23.0 mphScattered Clouds
3:51 PM41.0 °F10.0 °F28 %30.15 in10.0 miWNW (290°)17.3 mph21.9 mphScattered Clouds
4:51 PM39.9 °F10.0 °F29 %30.14 in10.0 miWest (270°)16.1 mph20.7 mphScattered Clouds
5:51 PM39.0 °F10.0 °F30 %30.15 in10.0 miNW (310°)16.1 mph23.0 mphScattered Clouds
6:51 PM37.0 °F10.9 °F34 %30.16 in10.0 miWNW (300°)15.0 mph20.7 mphPartly Cloudy
7:51 PM35.6 °F12.2 °F38 %30.13 in10.0 miWNW (300°)11.5 mphPartly Cloudy
8:51 PM35.6 °F12.2 °F38 %30.14 in10.0 miWNW (300°)10.4 mphClear
9:51 PM33.1 °F12.9 °F43 %30.20 in10.0 miWNW (300°)6.9 mphClear
10:51 PM33.1 °F14.0 °F46 %30.21 in10.0 miWNW (300°)9.2 mphClear
11:51 PM30.9 °F14.0 °F50 %30.21 in10.0 miWNW (300°)10.4 mphClear
Hourly data recorded from KMDW, located miles away from Bedford Park, Illinois







STORIES FROM OUR PARTNERS